Weather History for Bainbridge, GA

Change the Weather History Date:

Sunday, February 10, 2013

  Actual Average (KMAI) Record (KMAI)
Temperature  
Mean Temperature 60 °F 54 °F  
Max Temperature 77 °F 65 °F 79 °F (1999)
Min Temperature 44 °F 42 °F 28 °F (2006)
Degree Days  
Heating Degree Days 4    
Month to date heating degree days  
Since 1 July heating degree days  
Cooling Degree Days 0    
Month to date cooling degree days  
Year to date cooling degree days  
Growing Degree Days 10 (Base 50)    
Moisture  
Dew Point 52 °F    
Average Humidity 72    
Maximum Humidity 88    
Minimum Humidity 56    
Precipitation  
Precipitation 0.00 in 0.17 in 0.41 in (2001)
Month to date precipitation 1.70  
Year to date precipitation 6.74  
Sea Level Pressure  
Sea Level Pressure 30.17 in    
Wind  
Wind Speed 9 mph (SE)    
Max Wind Speed 22 mph    
Max Gust Speed 30 mph    
Visibility 10 miles    
Events Rain , Thunderstorm    
T = Trace of Precipitation, MM = Missing Value Source: NWS Daily Summary

Daily Weather History Graph

Daily Weather History Graph

Search for Another Location

Airport:

Trip Planner

Search our weather history database for the weather conditions in past years. The results will help you decide how hot, cold, wet, or windy it might be!

Date:

Astronomy

Feb. 10, 2013 Rise Set
Actual Time 7:23 AM EST 6:22 PM EST
Civil Twilight 6:58 AM EST 6:47 PM EST
Nautical Twilight 6:30 AM EST 7:15 PM EST
Astronomical Twilight 6:02 AM EST 7:43 PM EST
Moon 7:17 AM EST (2/10) 7:05 PM EST (2/10)
Length of Visible Light 11h 48m
Length of Day
10h 58m
New Moon, 0% of the Moon is Illuminated
Feb 10
New Moon
Feb 17
First Quarter
Feb 25
Full
Mar 4
Last Quarter
Mar 11
New

Hourly Weather History & Observations

Time (EST) Temp. Windchill Dew Point Humidity Pressure Visibility Wind Dir Wind Speed Gust Speed Precip Events Conditions
12:15 AM 48.2 °F - 42.8 °F 82% 30.23 in 10.0 mi East 3.5 mph - N/A   Clear
12:35 AM 50.0 °F - 42.8 °F 76% 30.23 in 10.0 mi East 4.6 mph - N/A   Clear
1:15 AM 46.4 °F 43.5 °F 41.0 °F 81% 30.23 in 10.0 mi East 5.8 mph - N/A   Clear
1:35 AM 46.4 °F 44.3 °F 41.0 °F 81% 30.23 in 10.0 mi East 4.6 mph - N/A   Clear
1:55 AM 46.4 °F 43.5 °F 41.0 °F 81% 30.23 in 10.0 mi East 5.8 mph - N/A   Clear
2:15 AM 46.4 °F 43.5 °F 41.0 °F 81% 30.22 in 10.0 mi East 5.8 mph - N/A   Clear
2:35 AM 50.0 °F - 41.0 °F 71% 30.22 in 10.0 mi ESE 4.6 mph - N/A   Clear
2:55 AM 50.0 °F - 41.0 °F 71% 30.22 in 10.0 mi East 4.6 mph - N/A   Clear
3:15 AM 46.4 °F 45.2 °F 39.2 °F 76% 30.22 in 10.0 mi East 3.5 mph - N/A   Clear
3:35 AM 46.4 °F 43.5 °F 39.2 °F 76% 30.21 in 10.0 mi East 5.8 mph - N/A   Clear
3:55 AM 44.6 °F 41.4 °F 41.0 °F 87% 30.20 in 10.0 mi East 5.8 mph - N/A   Clear
4:15 AM 46.4 °F 42.9 °F 41.0 °F 81% 30.20 in 10.0 mi East 6.9 mph - N/A   Clear
4:35 AM 46.4 °F 42.9 °F 41.0 °F 81% 30.20 in 10.0 mi East 6.9 mph - N/A   Clear
4:55 AM 46.4 °F 42.9 °F 41.0 °F 81% 30.21 in 10.0 mi East 6.9 mph - N/A   Clear
5:15 AM 44.6 °F 40.7 °F 41.0 °F 87% 30.21 in 10.0 mi East 6.9 mph - N/A   Clear
5:35 AM 44.6 °F 40.7 °F 41.0 °F 87% 30.22 in 10.0 mi East 6.9 mph - N/A   Clear
5:55 AM 44.6 °F 40.7 °F 41.0 °F 87% 30.23 in 10.0 mi ENE 6.9 mph - N/A   Clear
6:15 AM 44.6 °F 40.7 °F 41.0 °F 87% 30.23 in 10.0 mi East 6.9 mph - N/A   Clear
6:35 AM 44.6 °F 41.4 °F 41.0 °F 87% 30.23 in 10.0 mi East 5.8 mph - N/A   Clear
6:55 AM 44.6 °F 40.7 °F 41.0 °F 87% 30.23 in 10.0 mi East 6.9 mph - N/A   Clear
7:15 AM 44.6 °F 42.2 °F 41.0 °F 87% 30.24 in 10.0 mi East 4.6 mph - N/A   Clear
7:35 AM 46.4 °F 42.9 °F 42.8 °F 87% 30.24 in 10.0 mi East 6.9 mph - N/A   Clear
7:55 AM 46.4 °F 42.9 °F 42.8 °F 87% 30.24 in 10.0 mi East 6.9 mph - N/A   Clear
8:15 AM 50.0 °F - 44.6 °F 82% 30.23 in 10.0 mi East 5.8 mph - N/A   Clear
8:35 AM 51.8 °F - 46.4 °F 82% 30.22 in 10.0 mi ESE 8.1 mph - N/A   Clear
8:55 AM 53.6 °F - 48.2 °F 82% 30.24 in 10.0 mi East 8.1 mph - N/A   Clear
9:15 AM 57.2 °F - 50.0 °F 77% 30.25 in 10.0 mi ESE 9.2 mph 16.1 mph N/A   Scattered Clouds
9:35 AM 59.0 °F - 50.0 °F 72% 30.24 in 10.0 mi ESE 9.2 mph 19.6 mph N/A   Scattered Clouds
9:55 AM 60.8 °F - 50.0 °F 68% 30.25 in 10.0 mi ESE 11.5 mph 16.1 mph N/A   Scattered Clouds
10:15 AM 62.6 °F - 50.0 °F 63% 30.24 in 10.0 mi ESE 12.7 mph 19.6 mph N/A   Clear
10:35 AM 62.6 °F - 51.8 °F 68% 30.26 in 10.0 mi SE 13.8 mph 17.3 mph N/A   Scattered Clouds
10:55 AM 64.4 °F - 51.8 °F 64% 30.25 in 10.0 mi SE 13.8 mph - N/A   Scattered Clouds
11:15 AM 68.0 °F - 53.6 °F 60% 30.25 in 10.0 mi SE 13.8 mph 21.9 mph N/A   Scattered Clouds
11:35 AM 69.8 °F - 53.6 °F 56% 30.24 in 10.0 mi SE 13.8 mph 23.0 mph N/A   Clear
11:55 AM 69.8 °F - 53.6 °F 56% 30.24 in 10.0 mi SE 15.0 mph - N/A   Clear
12:15 PM 71.6 °F - 55.4 °F 57% 30.24 in 10.0 mi SSE 12.7 mph 24.2 mph N/A   Scattered Clouds
12:35 PM 71.6 °F - 55.4 °F 57% 30.22 in 10.0 mi SSE 17.3 mph 23.0 mph N/A   Scattered Clouds
12:55 PM 71.6 °F - 55.4 °F 57% 30.20 in 10.0 mi SSE 15.0 mph 19.6 mph N/A   Mostly Cloudy
1:15 PM 73.4 °F - 57.2 °F 57% 30.18 in 10.0 mi SSE 18.4 mph 26.5 mph N/A   Scattered Clouds
1:35 PM 71.6 °F - 57.2 °F 60% 30.16 in 10.0 mi South 16.1 mph 21.9 mph N/A   Scattered Clouds
1:55 PM 71.6 °F - 57.2 °F 60% 30.15 in 10.0 mi SSE 21.9 mph 27.6 mph N/A   Scattered Clouds
2:15 PM 73.4 °F - 59.0 °F 61% 30.13 in 10.0 mi SSE 18.4 mph 29.9 mph N/A   Scattered Clouds
2:35 PM 73.4 °F - 59.0 °F 61% 30.14 in 10.0 mi SSE 19.6 mph 26.5 mph N/A   Clear
2:55 PM 77.0 °F - 60.8 °F 57% 30.13 in 10.0 mi SSE 21.9 mph 27.6 mph N/A   Mostly Cloudy
3:15 PM 73.4 °F - 59.0 °F 61% 30.12 in 10.0 mi South 17.3 mph 23.0 mph N/A   Mostly Cloudy
3:35 PM 73.4 °F - 59.0 °F 61% 30.12 in 10.0 mi SSE 19.6 mph 26.5 mph N/A   Mostly Cloudy
3:55 PM 73.4 °F - 59.0 °F 61% 30.12 in 10.0 mi South 17.3 mph 24.2 mph N/A   Scattered Clouds
4:15 PM 71.6 °F - 59.0 °F 64% 30.11 in 10.0 mi SSE 17.3 mph 24.2 mph N/A   Mostly Cloudy
4:35 PM 71.6 °F - 59.0 °F 64% 30.11 in 10.0 mi SSE 13.8 mph 21.9 mph N/A   Mostly Cloudy
4:55 PM 71.6 °F - 59.0 °F 64% 30.10 in 10.0 mi South 13.8 mph 18.4 mph N/A   Scattered Clouds
5:15 PM 71.6 °F - 59.0 °F 64% 30.09 in 10.0 mi SSE 13.8 mph 17.3 mph N/A   Scattered Clouds
5:35 PM 71.6 °F - 59.0 °F 64% 30.11 in 10.0 mi South 11.5 mph - N/A   Scattered Clouds
5:55 PM 71.6 °F - 60.8 °F 69% 30.11 in 10.0 mi South 10.4 mph 16.1 mph N/A   Scattered Clouds
6:15 PM 71.6 °F - 60.8 °F 69% 30.10 in 10.0 mi South 9.2 mph - N/A   Clear
6:35 PM 71.6 °F - 60.8 °F 69% 30.10 in 10.0 mi South 11.5 mph - N/A   Clear
6:55 PM 71.6 °F - 59.0 °F 64% 30.10 in 10.0 mi South 11.5 mph 23.0 mph N/A   Clear
7:15 PM 69.8 °F - 59.0 °F 68% 30.10 in 10.0 mi South 12.7 mph 17.3 mph N/A   Scattered Clouds
7:35 PM 69.8 °F - 59.0 °F 68% 30.10 in 10.0 mi South 10.4 mph 21.9 mph N/A   Scattered Clouds
7:55 PM 69.8 °F - 59.0 °F 68% 30.10 in 10.0 mi South 15.0 mph 23.0 mph N/A   Scattered Clouds
8:15 PM 69.8 °F - 59.0 °F 68% 30.10 in 10.0 mi South 10.4 mph 16.1 mph N/A   Scattered Clouds
8:35 PM 69.8 °F - 59.0 °F 68% 30.09 in 10.0 mi SSE 11.5 mph 21.9 mph N/A   Scattered Clouds
8:55 PM 69.8 °F - 59.0 °F 68% 30.09 in 10.0 mi South 15.0 mph 19.6 mph N/A   Clear
9:15 PM 69.8 °F - 59.0 °F 68% 30.08 in 10.0 mi South 16.1 mph 23.0 mph N/A   Clear
9:35 PM 69.8 °F - 59.0 °F 68% 30.10 in 10.0 mi South 11.5 mph 19.6 mph N/A   Clear
9:55 PM 69.8 °F - 59.0 °F 68% 30.09 in 10.0 mi South 13.8 mph 18.4 mph N/A   Scattered Clouds
10:15 PM 69.8 °F - 60.8 °F 73% 30.10 in 10.0 mi South 13.8 mph 19.6 mph N/A   Scattered Clouds
10:35 PM 69.8 °F - 60.8 °F 73% 30.09 in 10.0 mi South 13.8 mph 20.7 mph N/A   Scattered Clouds
10:55 PM 69.8 °F - 60.8 °F 73% 30.09 in 10.0 mi South 12.7 mph 19.6 mph N/A   Scattered Clouds
11:15 PM 69.8 °F - 60.8 °F 73% 30.09 in 10.0 mi South 12.7 mph 17.3 mph N/A   Scattered Clouds
11:35 PM 69.8 °F - 60.8 °F 73% 30.08 in 10.0 mi South 12.7 mph 16.1 mph N/A Thunderstorm Thunderstorm
11:55 PM 64.4 °F - 60.8 °F 88% 30.13 in 5.0 mi Calm Calm - N/A Rain , Thunderstorm Heavy Thunderstorms and Rain